If you wish to contribute or participate in the discussions about articles you are invited to join SKYbrary as a registered user

 Actions

Iqaluit

From SKYbrary Wiki

CYFB
Airport
ICAO: CYFB
Summary
Name Iqaluit
Region North America
Territory Canada CA.gif
Location Iqaluit, Nunavut
Serving
Coordinates 63° 45' 15.54" N, 68° 33' 1.35" W
Runways
Designator Length Width Surface ROPS
17/35 2623 m8,605.643 ft <br /> 61 m200.131 ft <br /> ASP yes/yes


METAR
Observation CYFB 250225Z 33024KT 1 1/2SM -SN BLSN OVC028 M20/M23 A2952 RMK BLSN6SC2 VIS VRB 1-2 SLP002
Station Iqaluit, N. W. T.
Date/Time 25 February 2021 02:25:00
Wind direction 330°
Wind speed 24 kts
Lowest cloud amount overcast
Temperature
Dew point
Humidity 76%
QNH hPa
Weather condition light blowing

CFIT
Tag(s) Altimeter Temperature Error Correction
WX
Tag(s) Low Level Turbulence

Iqaluit Airport

ICAO: CYFB IATA: YFB

Description

Airport serving Iqaluit, Nunavut.

Climatology

Tundra climate (Köppen climate classification ET) - warmest month has an average temperature of 0 - 10 degrees C.

Maps

Terrain

Loading map...

Airport Layout

Loading map...


Accidents & Serious Incidents at or in vicinity of CYFB

None on SKYbrary